Weather History for Avoca, PA

Change the Weather History Date:

Thursday, November 22, 2012

  Actual Average Record
Temperature  
Mean Temperature 41 °F 39 °F  
Max Temperature 55 °F 47 °F 72 °F (1931)
Min Temperature 26 °F 32 °F 15 °F (1987)
Degree Days  
Heating Degree Days 24 26  
Month to date heating degree days 532 489  
Since 1 July heating degree days 990 1092  
Cooling Degree Days 0 0  
Month to date cooling degree days 0 0  
Year to date cooling degree days 864 580  
Moisture  
Dew Point 26 °F    
Average Humidity 62    
Maximum Humidity 92    
Minimum Humidity 32    
Precipitation  
Precipitation 0.00 in 0.11 in 2.12 in (1991)
Month to date precipitation 0.84 2.30  
Year to date precipitation 33.92 34.74  
Sea Level Pressure  
Sea Level Pressure 30.21 in    
Wind  
Wind Speed 3 mph (ESE)    
Max Wind Speed 7 mph    
Max Gust Speed 10 mph    
Visibility 10 miles    
Events      
T = Trace of Precipitation, MM = Missing Value Source: NWS Daily Summary

Daily Weather History Graph

Daily Weather History Graph

Search for Another Location

Airport:

Trip Planner

Search our weather history database for the weather conditions in past years. The results will help you decide how hot, cold, wet, or windy it might be!

Date:

Astronomy

Nov. 22, 2012 Rise Set
Actual Time 6:59 AM EST 4:38 PM EST
Civil Twilight 6:29 AM EST 5:08 PM EST
Nautical Twilight 5:55 AM EST 5:42 PM EST
Astronomical Twilight 5:22 AM EST 6:15 PM EST
Moon 1:25 PM EST (11/22) 1:14 AM EST (11/22)
Length of Visible Light 10h 38m
Length of Day
9h 38m
Waxing Gibbous, 71% of the Moon is Illuminated
Nov 22
Waxing Gibbous
Nov 28
Full
Dec 6
Last Quarter
Dec 13
New
Dec 20
First Quarter

Hourly Weather History & Observations

Time (EST) Temp. Windchill Dew Point Humidity Pressure Visibility Wind Dir Wind Speed Gust Speed Precip Events Conditions
12:54 AM 34.0 °F 29.8 °F 27.0 °F 75% 30.23 in 10.0 mi East 4.6 mph - N/A   Clear
1:54 AM 33.1 °F 27.7 °F 27.0 °F 78% 30.25 in 10.0 mi East 5.8 mph - N/A   Clear
2:54 AM 30.9 °F 27.5 °F 26.1 °F 82% 30.24 in 10.0 mi East 3.5 mph - N/A   Clear
3:54 AM 30.9 °F 27.5 °F 24.1 °F 76% 30.24 in 10.0 mi East 3.5 mph - N/A   Clear
4:54 AM 28.9 °F - 26.1 °F 89% 30.26 in 8.0 mi Calm Calm - N/A   Clear
5:54 AM 27.0 °F - 23.0 °F 85% 30.27 in 10.0 mi Calm Calm - N/A   Clear
6:54 AM 28.0 °F - 23.0 °F 81% 30.27 in 10.0 mi Calm Calm - N/A   Clear
7:54 AM 30.9 °F - 23.0 °F 72% 30.28 in 10.0 mi Calm Calm - N/A   Clear
8:54 AM 35.1 °F 32.2 °F 26.1 °F 70% 30.28 in 10.0 mi NE 3.5 mph - N/A   Clear
9:54 AM 39.9 °F - 28.0 °F 63% 30.27 in 10.0 mi Calm Calm - N/A   Clear
10:54 AM 44.1 °F - 28.0 °F 53% 30.27 in 10.0 mi Calm Calm - N/A   Clear
11:54 AM 48.9 °F - 28.9 °F 46% 30.23 in 10.0 mi WNW 3.5 mph - N/A   Clear
12:54 PM 51.1 °F - 27.0 °F 39% 30.20 in 10.0 mi Calm Calm - 0.01 in   Clear
1:54 PM 54.0 °F - 25.0 °F 33% 30.19 in 10.0 mi SW 4.6 mph - N/A   Clear
2:54 PM 55.0 °F - 26.1 °F 33% 30.17 in 10.0 mi West 4.6 mph - N/A   Clear
3:54 PM 54.0 °F - 28.0 °F 37% 30.17 in 10.0 mi WSW 3.5 mph - N/A   Clear
4:54 PM 48.9 °F - 28.0 °F 44% 30.17 in 10.0 mi SSE 3.5 mph - N/A   Clear
5:54 PM 45.0 °F - 28.0 °F 52% 30.18 in 10.0 mi Calm Calm - N/A   Clear
6:54 PM 43.0 °F - 27.0 °F 53% 30.17 in 10.0 mi Calm Calm - N/A   Clear
7:54 PM 42.1 °F 40.2 °F 27.0 °F 55% 30.16 in 10.0 mi East 3.5 mph - N/A   Clear
8:54 PM 39.0 °F 35.7 °F 27.0 °F 62% 30.16 in 10.0 mi East 4.6 mph - N/A   Clear
9:54 PM 37.0 °F 33.3 °F 26.1 °F 65% 30.14 in 10.0 mi ESE 4.6 mph - N/A   Clear
10:54 PM 37.0 °F 32.4 °F 26.1 °F 65% 30.12 in 10.0 mi East 5.8 mph - N/A   Clear
11:54 PM 36.0 °F 32.1 °F 26.1 °F 67% 30.11 in 10.0 mi ESE 4.6 mph - N/A   Clear